[[{"header":{"parameterUnit":"m.s-1","parameterCategory":1,"la1":30.2991,"la2":30.254,"lo1":-89.0895,"lo2":-89.0444,"dy":0.0017,"dx":0.0017,"nx":28,"ny":28,"refTime":"2024-03-31T03:00:00:Z","depth":0,"parameterNumber":2,"parameterNumberName":"U-component_of_WINDS"},"data":[0,0,0,0,0,0,0,0,0,0,0,0,0,0,0,0,0,0,0,0,0,0,0,0,0,0,0,0,0,0,0,0,0,0,0,0,0,0,0,0,0,0,0,0,0,0,0,0,0,0,0,0,0,0,0,0,0,0,-2.5346,-2.5347,0,-2.5361,-2.5361,-2.5361,-2.533,-2.5329,-2.5328,-2.5327,-2.5343,-2.5344,-2.5345,0,0,0,0,0,0,0,0,0,0,0,0,0,-2.5294,-2.5295,-2.5346,-2.5347,-2.5347,-2.5361,-2.5361,-2.5361,-2.533,-2.5329,-2.5328,-2.5327,-2.5342,-2.5344,-2.5346,0,0,0,0,0,0,0,0,0,0,0,0,0,-2.5313,-2.5296,-2.5346,-2.5333,-2.5332,-2.5361,-2.5361,-2.5361,-2.5331,-2.5329,-2.5328,-2.5326,-2.5342,-2.5344,-2.5346,-2.5388,0,0,-2.5352,-2.5353,0,0,0,0,0,0,0,0,-2.5312,-2.5315,-2.5335,-2.5334,-2.5333,-2.5342,-2.5348,-2.537,-2.5331,-2.5331,-2.5327,-2.5325,-2.5344,-2.5346,-2.5352,-2.5389,-2.539,-2.5352,-2.5353,-2.5354,-2.5355,0,0,0,0,0,0,0,-2.5311,-2.5315,-2.5352,-2.5335,-2.5334,-2.5327,-2.5328,-2.5352,-2.5346,-2.5331,-2.5329,-2.5331,-2.5343,-2.535,-2.5352,-2.539,-2.5352,-2.5354,-2.5355,-2.5356,-2.5463,-2.5464,0,0,0,0,0,0,-2.5311,-2.5314,-2.5352,-2.5352,-2.5319,-2.5329,-2.533,-2.5341,-2.5345,-2.5345,-2.5332,-2.5329,-2.5347,-2.5349,-2.5352,-2.5401,-2.5354,-2.5356,-2.5357,-2.5461,-2.5463,-2.5465,0,0,0,0,0,0,-2.531,-2.5315,-2.5351,-2.5333,-2.5337,-2.5332,-2.5343,-2.5342,-2.5348,-2.5346,-2.5345,-2.534,-2.5346,-2.5349,-2.5379,-2.5402,-2.5357,-2.5359,-2.5459,-2.5462,-2.5464,-2.5501,0,0,0,0,0,0,-2.5309,-2.5315,-2.533,-2.5333,-2.5338,-2.5378,-2.5345,-2.5343,-2.5352,-2.5348,-2.5353,-2.5353,-2.5345,-2.5377,-2.5381,-2.5404,-2.536,-2.5457,-2.546,-2.5463,-2.5498,-2.5504,-2.551,0,0,0,0,0,-2.5307,-2.5341,-2.5331,-2.5336,-2.5357,-2.5379,-2.5382,-2.5372,-2.5354,-2.5369,-2.5368,-2.5353,-2.5399,-2.538,-2.5385,-2.5408,-2.5456,-2.5459,-2.5463,-2.5495,-2.5503,-2.551,0,0,0,0,0,0,-2.5341,-2.5341,-2.533,-2.5366,-2.5372,-2.5374,-2.5393,-2.5381,-2.5393,-2.5389,-2.5377,-2.5379,-2.5411,-2.5413,-2.5392,-2.545,-2.5424,-2.5429,-2.5447,-2.5454,-2.546,-2.5459,-2.5362,0,0,0,0,0,-2.5352,-2.537,-2.5369,-2.54,-2.5404,-2.5398,-2.5407,-2.5399,-2.5406,-2.5409,-2.541,-2.5417,-2.5433,-2.5444,-2.5459,-2.5498,-2.5499,-2.5517,-2.5523,-2.5528,-2.5532,-2.5553,-2.556,-2.5477,-2.5477,-2.5477,0,0,-2.5376,-2.5378,-2.539,-2.5407,-2.5411,-2.543,-2.5401,-2.5422,-2.5435,-2.5412,-2.544,-2.5441,-2.5449,-2.5484,-2.5499,-2.5486,-2.5556,-2.5533,-2.5537,-2.5538,-2.5557,-2.5565,-2.5572,-2.5479,-2.5479,-2.5478,0,0,-2.5429,-2.5432,-2.5458,-2.5463,-2.547,-2.5466,-2.5473,-2.5476,-2.5476,-2.5504,-2.5487,-2.5504,-2.5532,-2.5538,-2.5545,-2.5601,-2.5586,-2.5606,-2.5638,-2.5658,-2.5664,-2.567,-2.5689,-2.5696,-2.561,-2.561,-2.561,0,-2.5457,-2.5484,-2.5473,-2.5495,-2.5503,-2.5483,-2.551,-2.5515,-2.5527,-2.5533,-2.5519,-2.5554,-2.5558,-2.5593,-2.5607,-2.5614,-2.562,-2.5604,-2.5664,-2.567,-2.5675,-2.5693,-2.57,-2.5613,-2.5612,-2.5612,-2.5612,0,-2.5519,-2.5538,-2.5558,-2.5569,-2.558,-2.5604,-2.5597,-2.5609,-2.5601,-2.5599,-2.5628,-2.5632,-2.5647,-2.5655,-2.5647,-2.569,-2.5681,-2.5666,-2.564,-2.5685,-2.5702,-2.5709,-2.5616,-2.5615,-2.5614,-2.5614,0,0,-2.5591,-2.5597,-2.5604,-2.5609,-2.5616,-2.563,-2.5654,-2.5669,-2.5679,-2.5688,-2.5707,-2.5732,-2.5718,-2.5726,-2.5719,-2.5737,-2.578,-2.5719,-2.5719,-2.5729,-2.5826,-2.5836,-2.5845,-2.5771,-2.5773,-2.5774,-2.5825,0,-2.5642,-2.5682,-2.5673,-2.5713,-2.573,-2.5712,-2.5732,-2.5739,-2.5738,-2.5753,-2.5752,-2.5769,-2.575,-2.5754,-2.5772,-2.5771,-2.5799,-2.5767,-2.5789,-2.5789,-2.5785,-2.5854,-2.5865,-2.5913,-2.5832,-2.5833,-2.5834,0,-2.5707,-2.5718,-2.5759,-2.5762,-2.5769,-2.5788,-2.58,-2.5815,-2.5823,-2.5821,-2.583,-2.5819,-2.5843,-2.5818,-2.5851,-2.583,-2.5838,-2.5839,-2.5841,-2.5841,-2.5813,-2.5854,-2.5928,-2.5935,-2.5844,-2.5843,-2.5842,0,-2.5754,-2.578,-2.5807,-2.5812,-2.5818,-2.5831,-2.5834,-2.584,-2.5849,-2.5861,-2.5867,-2.5881,-2.5889,-2.5901,-2.5895,-2.5877,-2.5928,-2.5903,-2.5927,-2.5927,-2.5937,-2.5936,-2.6011,-2.5945,-2.5945,-2.5945,-2.5945,0,-2.5811,-2.5837,-2.5828,-2.5845,-2.5873,-2.5864,-2.5892,-2.5893,-2.5899,-2.5915,-2.5902,-2.5918,-2.591,-2.5926,-2.5921,-2.5948,-2.5952,-2.5951,-2.595,-2.5952,-2.5952,-2.5956,-2.5952,-2.5947,-2.5946,-2.5946,-2.5945,0,-2.5868,-2.5864,-2.5892,-2.5895,-2.5897,-2.5917,-2.592,-2.5936,-2.5934,-2.5956,-2.596,-2.5958,-2.5976,-2.5971,-2.5991,-2.5988,-2.6022,-2.6017,-2.6019,-2.6017,-2.6041,-2.6038,-2.612,-2.613,-2.6059,-2.606,-2.6061,0,-2.5904,-2.5923,-2.5928,-2.5938,-2.5942,-2.5959,-2.5968,-2.596,-2.5971,-2.5981,-2.5995,-2.6012,-2.6025,-2.6054,-2.6055,-2.607,-2.6064,-2.6092,-2.6066,-2.6067,-2.6063,-2.6061,-2.6062,-2.6096,-2.6097,-2.6098,-2.6098,0,-2.5968,-2.5965,-2.5979,-2.5992,-2.6003,-2.6013,-2.6022,-2.6032,-2.6024,-2.6037,-2.6055,-2.6065,-2.6085,-2.6101,-2.6115,-2.6119,-2.6107,-2.6107,-2.6113,-2.6114,-2.6114,-2.6113,-2.6032,-2.6104,-2.6104,-2.6103,-2.6103,-2.6103,-2.6015,-2.603,-2.6036,-2.6052,-2.6058,-2.6067,-2.6081,-2.6082,-2.6096,-2.6111,-2.6107,-2.6127,-2.6134,-2.6152,-2.6157,-2.6173,-2.6163,-2.6172,-2.6174,-2.6176,-2.6178,-2.6113,-2.6176,-2.6176,-2.6176,-2.6176,-2.6175,0,-2.6077,-2.608,-2.6095,-2.6107,-2.612,-2.6108,-2.6117,-2.6129,-2.6146,-2.6154,-2.6167,-2.6188,-2.6204,-2.6206,-2.6221,-2.6233,-2.6228,-2.6237,-2.6236,-2.6237,-2.6187,-2.618,-2.6241,-2.6241,-2.6241,-2.6241,-2.6241,-2.6241,-2.611,-2.6136,-2.6134,-2.6163,-2.6166,-2.6185,-2.6191,-2.6199,-2.6205,-2.6229,-2.6242,-2.6243,-2.6248,-2.6264,-2.6278,-2.6279,-2.6284,-2.6295,-2.6293,-2.6247,-2.624,-2.6234,-2.6227,-2.6297,-2.6297,-2.6341,-2.6341,-2.6342]},{"header":{"parameterUnit":"m.s-1","parameterCategory":1,"la1":30.2991,"la2":30.254,"lo1":-89.0895,"lo2":-89.0444,"dy":0.0017,"dx":0.0017,"nx":28,"ny":28,"refTime":"2024-03-31T03:00:00:Z","depth":0,"parameterNumber":3,"parameterNumberName":"V-component_of_WINDS"},"data":[0,0,0,0,0,0,0,0,0,0,0,0,0,0,0,0,0,0,0,0,0,0,0,0,0,0,0,0,0,0,0,0,0,0,0,0,0,0,0,0,0,0,0,0,0,0,0,0,0,0,0,0,0,0,0,0,0,0,3.9987,3.9987,0,3.9981,3.9981,3.9981,3.9963,3.9963,3.9962,3.9962,3.9954,3.9954,3.9954,0,0,0,0,0,0,0,0,0,0,0,0,0,3.9984,3.9984,3.9987,3.9987,3.9987,3.9981,3.9981,3.9981,3.9963,3.9963,3.9962,3.9962,3.9954,3.9954,3.9954,0,0,0,0,0,0,0,0,0,0,0,0,0,3.9982,3.9984,3.9987,3.9978,3.9977,3.9981,3.9981,3.9981,3.9963,3.9963,3.9962,3.9962,3.9954,3.9954,3.9954,3.9967,0,0,3.9955,3.9955,0,0,0,0,0,0,0,0,3.9982,3.9982,3.9979,3.9978,3.9977,3.9972,3.9977,3.9976,3.9963,3.9968,3.9962,3.9961,3.9961,3.996,3.996,3.9967,3.9966,3.9955,3.9955,3.9955,3.9955,0,0,0,0,0,0,0,3.9982,3.9982,3.9985,3.9979,3.9978,3.9973,3.9973,3.9976,3.9968,3.9968,3.9967,3.9966,3.996,3.996,3.996,3.9966,3.9955,3.9955,3.9955,3.9956,3.9984,3.9984,0,0,0,0,0,0,3.9984,3.9983,3.9985,3.9984,3.9978,3.9974,3.9973,3.9974,3.9968,3.9966,3.9967,3.9965,3.996,3.996,3.996,3.9975,3.9955,3.9956,3.9956,3.9983,3.9984,3.9984,0,0,0,0,0,0,3.9984,3.9984,3.9985,3.9983,3.9983,3.9975,3.9976,3.9975,3.9975,3.9967,3.9965,3.9968,3.9959,3.9959,3.9966,3.9974,3.9956,3.9956,3.9982,3.9983,3.9984,4.0004,0,0,0,0,0,0,3.9984,3.9984,3.9989,3.9983,3.9983,3.9992,3.9977,3.9975,3.9975,3.9974,3.9968,3.9966,3.9959,3.9965,3.9966,3.9974,3.9956,3.9981,3.9983,3.9984,4.0003,4.0006,4.0008,0,0,0,0,0,3.9984,3.9995,3.999,3.999,3.9989,3.9992,3.9992,3.9984,3.9976,3.9981,3.9976,3.9967,3.9973,3.9966,3.9966,3.9975,3.9981,3.9982,3.9984,4.0001,4.0005,4.0008,0,0,0,0,0,0,4.0001,3.9994,3.9988,3.9997,3.9996,3.9989,3.9995,3.9987,3.9988,3.9986,3.9975,3.9974,3.9982,3.9979,3.9972,3.9987,3.9975,3.9977,3.9989,3.9992,3.9995,3.9996,3.9956,0,0,0,0,0,4.0006,4.0009,4.0003,4.0011,4.0011,4.0003,4.0004,3.9998,3.9996,3.9995,3.999,3.9988,3.9989,3.999,3.9991,4.0002,4.0001,4.0008,4.0011,4.0013,4.0015,4.0021,4.0024,3.9989,3.9989,3.9989,0,0,4.0016,4.0012,4.0015,4.0015,4.0013,4.0016,4.0002,4.0007,4.0009,3.9995,4.0001,3.9998,3.9995,4.0004,4.0007,4.0001,4.0024,4.0015,4.0017,4.0017,4.0023,4.0026,4.0029,3.999,3.999,3.999,0,0,4.0036,4.0034,4.0041,4.004,4.0037,4.0032,4.0034,4.0029,4.0026,4.0032,4.0022,4.0025,4.0027,4.0026,4.0025,4.0046,4.0038,4.0047,4.0061,4.0068,4.007,4.0073,4.0081,4.0084,4.0048,4.0048,4.0048,0,4.0049,4.0054,4.0046,4.0051,4.0052,4.0039,4.0047,4.0046,4.0044,4.0044,4.0037,4.0041,4.0038,4.0047,4.0052,4.0052,4.0054,4.0048,4.0071,4.0073,4.0075,4.0083,4.0086,4.005,4.0049,4.0049,4.0049,0,4.0071,4.0075,4.0081,4.008,4.0081,4.0087,4.008,4.0082,4.0076,4.0072,4.0078,4.0074,4.0075,4.0076,4.007,4.0084,4.0081,4.0073,4.0061,4.008,4.0087,4.009,4.0051,4.0051,4.005,4.005,0,0,4.0101,4.0096,4.0099,4.0098,4.0095,4.0098,4.0104,4.0105,4.0107,4.0106,4.0111,4.0114,4.0107,4.0107,4.01,4.0106,4.0123,4.0097,4.0096,4.0102,4.014,4.0147,4.015,4.0118,4.0118,4.0119,4.0141,0,4.0121,4.0132,4.0125,4.0136,4.014,4.0129,4.0135,4.0133,4.0129,4.0132,4.0127,4.013,4.012,4.012,4.0125,4.012,4.0131,4.0118,4.0123,4.0123,4.0125,4.0154,4.0161,4.0182,4.0143,4.0144,4.0144,0,4.0146,4.0147,4.0159,4.0156,4.0157,4.0162,4.0163,4.0166,4.0164,4.0161,4.0161,4.0153,4.0159,4.0147,4.0156,4.0147,4.0149,4.0147,4.0147,4.0148,4.0135,4.0156,4.0188,4.0191,4.0148,4.0148,4.0147,0,4.0168,4.0172,4.0181,4.0181,4.0177,4.0181,4.0179,4.0177,4.0178,4.0179,4.0179,4.018,4.0181,4.0182,4.0175,4.0167,4.0184,4.0172,4.0182,4.0183,4.0187,4.0187,4.022,4.0187,4.0187,4.0187,4.0187,0,4.0192,4.02,4.0191,4.0196,4.0205,4.0196,4.0206,4.0203,4.0201,4.0205,4.0195,4.02,4.019,4.0193,4.0187,4.0196,4.0196,4.0194,4.0192,4.0195,4.0195,4.0196,4.0194,4.0187,4.0187,4.0187,4.0187,0,4.0218,4.0212,4.0221,4.0217,4.0216,4.0223,4.0219,4.0224,4.0219,4.0225,4.0226,4.0219,4.0223,4.0216,4.0218,4.0214,4.0226,4.0222,4.0227,4.0226,4.0237,4.0236,4.0273,4.0277,4.024,4.0241,4.0241,0,4.0234,4.024,4.0237,4.0239,4.0239,4.0243,4.0244,4.0236,4.0238,4.0237,4.0242,4.0245,4.0247,4.0253,4.0248,4.025,4.0246,4.0259,4.0247,4.0249,4.0247,4.0247,4.0248,4.0262,4.0262,4.0262,4.0263,0,4.0263,4.026,4.0263,4.0265,4.0267,4.0268,4.0269,4.0271,4.0263,4.0266,4.0269,4.0271,4.0274,4.0277,4.0278,4.0276,4.0268,4.0267,4.0269,4.0272,4.0275,4.0275,4.0235,4.0266,4.0266,4.0265,4.0265,4.0265,4.0285,4.029,4.0289,4.0293,4.0292,4.0293,4.0298,4.0294,4.0297,4.03,4.0294,4.03,4.0298,4.0299,4.0298,4.0302,4.0296,4.03,4.0301,4.0302,4.0304,4.0274,4.0302,4.0302,4.0302,4.0302,4.0302,0,4.0314,4.0313,4.0316,4.0318,4.0321,4.0313,4.0313,4.0317,4.0321,4.0321,4.0323,4.0328,4.0331,4.0327,4.0329,4.0333,4.033,4.0334,4.0334,4.0334,4.0309,4.0307,4.0337,4.0337,4.0337,4.0337,4.0337,4.0337,4.0329,4.0338,4.0335,4.0344,4.0343,4.0348,4.0349,4.035,4.035,4.0355,4.0358,4.0356,4.0354,4.0356,4.0359,4.0357,4.0359,4.0365,4.0362,4.0339,4.0336,4.0332,4.033,4.0365,4.0365,4.0387,4.0387,4.0388]}]]